カタログに戻る

STARLINK-2092

運用中通信VLEO
NORAD 47373·PAYLOAD·🇺🇸 United States

打ち上げ Jan 20, 2021 から Cape Canaveral Space Force Station

Loading…

次のパス (今後24時間)

TLE

最新Source: CelesTrak SupGP

元期: Sep 14, 2026, 21:29 UTC

1 47373C 21005AA  26257.89562500  .00055652  00000+0  17904-2 0  2571
2 47373  53.1572 261.9670 0001250  93.9795 203.5275 15.31660157    10

AllMySatでSTARLINK-2092をリアルタイム追跡

Download on the App Store